User: anonymous
Location: Marseilles
(40.7010°N, 83.3930°W)
Time: 03:24:57
(UTC-04:00)
Language:

Cosmos 1459 Rocket - Orbit

View from above orbital plane
View from above orbital plane
View from above satellite
View from above satellite

Ground track
Ground track

The orbit data is extracted from the following two-line orbital elements,

1 14059U 83042B   14258.10128819  .00000176  00000-0  15791-3 0  3866
2 14059 082.9685 088.6209 0042271 210.5546 284.4023 13.78462323577147
Epoch (UTC): 15 September 2014 02:25:51
Eccentricity: 0.0042271
inclination: 82.9685°
perigee height: 938 km
apogee height: 1000 km
right ascension of ascending node: 88.6209°
argument of perigee: 210.5546°
revolutions per day: 13.78462323
mean anomaly at epoch: 284.4023°
orbit number at epoch: 57714

The dashed part of the orbit path shows where the satellite is in the earth's shadow,  

DLR